Location: Oshawa
(43.9000°N, 78.8670°W)
Time: 17:34:48
(UTC-05:00)

Courier 1B - All Passes

Search period start: 03 March 2015 00:00
Search period end: 13 March 2015 01:00
Orbit: 963 x 1209 km, 28.3° (Epoch: 02 March)

Date Brightness Start Highest point End Pass type
(mag) Time Alt. Az. Time Alt. Az. Time Alt. Az.
03 Mar - 04:45:17 10° S 04:49:07 15° SSE 04:53:11 10° SE visible
03 Mar - 06:36:24 10° SW 06:42:17 24° S 06:48:14 10° ESE daylight
03 Mar - 08:29:41 10° WSW 08:35:34 23° S 08:41:21 10° SE daylight
03 Mar - 10:25:04 10° SW 10:28:43 14° SSW 10:32:06 10° S daylight
04 Mar - 03:53:24 10° S 03:55:33 11° SSE 03:57:59 10° SE visible
04 Mar - 05:43:05 10° SW 05:48:38 22° S 05:54:20 10° ESE visible
04 Mar - 07:35:53 10° SW 07:41:55 24° S 07:47:55 10° SE daylight
04 Mar - 09:30:26 10° SW 09:35:07 17° SSW 09:39:37 10° SSE daylight
05 Mar - 04:49:57 10° SSW 04:55:01 19° SSE 05:00:17 10° ESE visible
05 Mar - 06:42:13 10° SW 06:48:15 25° S 06:54:19 10° SE daylight
05 Mar - 08:36:12 10° WSW 08:41:31 20° SSW 08:46:42 10° SSE daylight
06 Mar - 03:57:06 10° SSW 04:01:25 17° SSE 04:05:59 10° SE visible
06 Mar - 05:48:43 10° SW 05:54:35 24° S 06:00:36 10° SE visible
06 Mar - 07:42:12 10° WSW 07:47:52 22° S 07:53:30 10° SE daylight
06 Mar - 09:38:29 10° SW 09:41:00 12° SSW 09:43:14 10° S daylight
07 Mar - 03:04:44 10° S 03:07:52 13° SSE 03:11:17 10° SE visible
07 Mar - 04:55:21 10° SW 05:00:57 23° S 05:06:45 10° ESE visible
07 Mar - 06:48:23 10° SW 06:54:13 23° S 07:00:06 10° SE daylight
07 Mar - 08:43:22 10° SW 08:47:25 15° SSW 08:51:16 10° S daylight
08 Mar - 05:02:10 10° SSW 05:07:21 21° SSE 05:12:45 10° ESE visible
08 Mar - 06:54:43 10° SW 07:00:34 24° S 07:06:32 10° SE visible
08 Mar - 08:48:58 10° SW 08:53:48 17° SSW 08:58:32 10° SSE daylight
09 Mar - 04:09:13 10° SSW 04:13:47 18° SSE 04:18:36 10° SE visible
09 Mar - 06:01:12 10° SW 06:06:55 24° S 06:12:51 10° SE visible
09 Mar - 07:54:54 10° WSW 08:00:10 20° SSW 08:05:26 10° SSE daylight
10 Mar - 03:16:36 10° SSW 03:20:15 15° SSE 03:24:09 10° SE visible
10 Mar - 05:07:49 10° SW 05:13:19 23° S 05:19:02 10° SE visible
10 Mar - 07:01:03 10° SW 07:06:32 22° S 07:12:07 10° SE visible
10 Mar - 08:56:49 10° SW 08:59:42 12° SSW 09:02:21 10° S daylight
11 Mar - 02:24:41 10° S 02:26:46 12° SSE 02:29:06 10° SE night (unlit)
11 Mar - 04:14:35 10° SW 04:19:44 21° S 04:25:07 10° SE visible
11 Mar - 06:07:22 10° SW 06:12:55 23° S 06:18:37 10° SE visible
11 Mar - 08:02:03 10° SW 08:06:06 15° SSW 08:10:02 10° SSE daylight
12 Mar - 03:21:33 10° SSW 03:26:11 19° SSE 03:31:04 10° SE visible
12 Mar - 05:13:50 10° SW 05:19:18 23° S 05:25:00 10° SE visible
12 Mar - 07:07:50 10° SW 07:12:30 17° SSW 07:17:10 10° SSE visible
